Location: ??????
(38.0677°N, 22.9870°E)
Time: 16:20:30
(UTC+00:00)

Cosmos 2360 Rocket - Pass Details

Date: 23 May 2024
Orbit: 832 x 846 km, 71.0° (Epoch: 24 June)

Event Time Altitude Azimuth Distance (km) Brightness Sun altitude
Rises 00:17:32 0° 347° (NNW) 3,412 6.0 -25.6°
Reaches altitude 10° 00:20:17 10° 357° (N) 2,474 5.4 -25.3°
Maximum altitude 00:25:17 31° 59° (ENE) 1,442 3.9 -24.8°
Drops below altitude 10° 00:30:16 10° 121° (ESE) 2,461 4.6 -24.3°
Sets 00:32:58 0° 131° (SE) 3,391 5.3 -24.0°
